Find Starlink 5672

NORAD ID: 55468 Int'l Des: 2023-015 Owner: SPXS Country: US Constellation: starlink operational
LEOCIRCULAR

Live Position

Loading 3D Globe...

About Starlink 5672

Description loading...

Upcoming Passes

Passes for default location (London). Set your location on the main map for personalized predictions.

Altitude History

Loading altitude history...

Two-Line Element Set

1 55468U 23015V 26121.13990313 .00000157 00000-0 15526-4 0 9996
2 55468 43.0060 32.5071 0001458 267.4282 92.6402 15.26741054178745
Epoch: May 1, 2026 • Age: 11 hours

Current Status

Altitude 487.0 km
Velocity 7.63 km/s
Sub-Earth Point 30.86°N, 8.48°W
Launch Date Feb 2, 2023
Age 3.2 years
Type internet

Technical Details

Classification Payload
Mass 305.00 kg
Dry Mass 290.00 kg
Total Mass 305.00 kg
Length 0.20 m
Diameter 2.80 m
Span 9.00 m
Shape Box + pan
Manufacturer SPXS
Bus Type Starlink
Phase Status In Orbit
Owner/State SPXS/US

Most Searched